Location: Bidwell Hollow
(37.7387°N, 90.1707°W)
Time: 05:33:08
(UTC+00:00)

Transit 2A - Visible Passes

Search period start: 10 May 2026 00:00
Search period end: 20 May 2026 00:00
Orbit: 593 x 950 km, 66.7° (Epoch: 9 May)

Date Brightness Start Highest point End Pass type
(mag) Time Alt. Az. Time Alt. Az. Time Alt. Az.
10 May 7.8 07:02:50 10° N 07:06:48 23° NE 07:07:58 21° ENE visible
10 May 6.9 08:45:31 10° NW 08:48:13 27° WNW 08:48:13 27° WNW visible
11 May 8.3 06:27:04 10° N 06:30:04 16° NE 06:31:29 14° ENE visible
11 May 6.8 08:08:50 10° NW 08:11:45 34° NW 08:11:45 34° NW visible
12 May 8.6 05:52:09 10° NNE 05:53:15 11° NE 05:54:21 10° NE visible
12 May 6.9 07:32:22 10° NNW 07:35:28 38° NNW 07:35:28 38° NNW visible
13 May 7.2 06:56:03 10° NNW 06:59:19 36° N 06:59:19 36° N visible
14 May 7.5 06:19:53 10° N 06:23:17 28° NNE 06:23:17 28° NNE visible
14 May 8.1 08:03:09 10° NW 08:03:34 12° NW 08:03:34 12° NW visible
15 May 7.9 05:43:55 10° N 05:47:18 20° NE 05:47:18 20° NE visible
15 May 7.9 07:26:17 10° NW 07:27:36 18° NW 07:27:36 18° NW visible
16 May 8.2 05:08:19 10° NNE 05:10:47 14° NE 05:11:24 13° NE visible
16 May 7.6 06:49:41 10° NNW 06:51:42 24° NW 06:51:42 24° NW visible
17 May 7.4 06:13:15 10° NNW 06:15:51 30° NNW 06:15:51 30° NNW visible
18 May 7.4 05:37:00 10° NNW 05:40:04 31° NNE 05:40:04 31° NNE visible
19 May 7.5 05:00:54 10° N 05:04:18 25° NE 05:04:18 25° NE visible
19 May 8.2 06:43:51 10° NW 06:44:36 14° NW 06:44:36 14° NW visible
